Tracking 20621 objects as of 31-Mar-2020
HD Live streaming from Space Station
objects crossing your sky now

PEGASUS R/B

Track PEGASUS R/B now!
10-day predictions


NORAD ID: 38359
Int'l Code: 2012-031B
Perigee: 618.3 km
Apogee: 627.7 km
Inclination: 6.0 °
Period: 97.0 minutes
Semi major axis: 6994 km
RCS: 0.7943 m2 (medium)
Launch date: June 13, 2012
Source: United States (US)
Launch site: Kwajalein (KWAJ)

Note: This is a ROCKET BODY
aabbcc
Your satellite tracking list
Your tracking list is empty




NASA's NSSDC Master Catalog

Two Line Element Set (TLE):
1 38359U 12031B   15279.89684498  .00002744  00000-0  24018-3 0  9990
2 38359   6.0318 159.1594 0006675 285.2941  74.5998 14.84273953179732
Source of the keplerian elements: AFSPC